owner,sensor,date,latitude,longitude,vertical_datum,sea_water_temperature,qcFlag
BP,ioos:station:wmo:42369:4,2020-07-18T15:00:00Z,27.2096,-90.2887,1342.0,30.1,11111222
BP,ioos:station:wmo:42369:4,2020-07-18T17:00:00Z,27.2096,-90.2887,1342.0,31.3,11111222
BP,ioos:station:wmo:42369:4,2020-07-18T21:40:00Z,27.2096,-90.2887,1342.0,37.9,11133222
BP,ioos:station:wmo:42369:4,2020-07-18T22:00:00Z,27.2096,-90.2887,1342.0,38.1,11133222
BP,ioos:station:wmo:42369:4,2020-07-18T23:20:00Z,27.2096,-90.2887,1342.0,37.9,11133222
BP,ioos:station:wmo:42369:4,2020-07-18T23:40:00Z,27.2096,-90.2887,1342.0,37.8,11133222
BP,ioos:station:wmo:42369:4,2020-07-19T00:00:00Z,27.2096,-90.2887,1342.0,37.7,11133222
BP,ioos:station:wmo:42369:4,2020-07-17T16:00:00Z,27.2096,-90.2887,1342.0,29.2,11111222
BP,ioos:station:wmo:42369:4,2020-07-17T16:20:00Z,27.2096,-90.2887,1342.0,30.9,11111222
BP,ioos:station:wmo:42369:4,2020-07-17T16:40:00Z,27.2096,-90.2887,1342.0,36.4,11133222
BP,ioos:station:wmo:42369:4,2020-07-18T14:40:00Z,27.2096,-90.2887,1342.0,30.0,11111222
BP,ioos:station:wmo:42369:4,2020-07-18T15:20:00Z,27.2096,-90.2887,1342.0,30.0,11111222
BP,ioos:station:wmo:42369:4,2020-07-18T15:40:00Z,27.2096,-90.2887,1342.0,29.8,11111222
BP,ioos:station:wmo:42369:4,2020-07-18T16:00:00Z,27.2096,-90.2887,1342.0,29.8,11111222
BP,ioos:station:wmo:42369:4,2020-07-18T16:20:00Z,27.2096,-90.2887,1342.0,30.5,11111222
BP,ioos:station:wmo:42369:4,2020-07-18T16:40:00Z,27.2096,-90.2887,1342.0,31.1,11111222
BP,ioos:station:wmo:42369:4,2020-07-18T17:20:00Z,27.2096,-90.2887,1342.0,31.5,11111222
BP,ioos:station:wmo:42369:4,2020-07-18T17:40:00Z,27.2096,-90.2887,1342.0,32.3,11111222
BP,ioos:station:wmo:42369:4,2020-07-18T18:00:00Z,27.2096,-90.2887,1342.0,33.8,11111222
BP,ioos:station:wmo:42369:4,2020-07-18T18:20:00Z,27.2096,-90.2887,1342.0,35.3,11133222
BP,ioos:station:wmo:42369:4,2020-07-18T18:40:00Z,27.2096,-90.2887,1342.0,36.4,11133222
BP,ioos:station:wmo:42369:4,2020-07-18T19:00:00Z,27.2096,-90.2887,1342.0,37.0,11133222
BP,ioos:station:wmo:42369:4,2020-07-18T19:20:00Z,27.2096,-90.2887,1342.0,37.3,11133222
BP,ioos:station:wmo:42369:4,2020-07-18T19:40:00Z,27.2096,-90.2887,1342.0,37.4,11133222
BP,ioos:station:wmo:42369:4,2020-07-18T20:00:00Z,27.2096,-90.2887,1342.0,37.4,11133222
BP,ioos:station:wmo:42369:4,2020-07-18T20:20:00Z,27.2096,-90.2887,1342.0,37.5,11133222
BP,ioos:station:wmo:42369:4,2020-07-18T20:40:00Z,27.2096,-90.2887,1342.0,37.6,11133222
BP,ioos:station:wmo:42369:4,2020-07-18T21:00:00Z,27.2096,-90.2887,1342.0,37.7,11133222
BP,ioos:station:wmo:42369:4,2020-07-18T21:20:00Z,27.2096,-90.2887,1342.0,37.8,11133222
BP,ioos:station:wmo:42369:4,2020-07-18T22:20:00Z,27.2096,-90.2887,1342.0,38.5,11133222
BP,ioos:station:wmo:42369:4,2020-07-18T22:40:00Z,27.2096,-90.2887,1342.0,38.5,11133222
BP,ioos:station:wmo:42369:4,2020-07-18T23:00:00Z,27.2096,-90.2887,1342.0,38.2,11133222
BP,ioos:station:wmo:42369:4,2020-07-19T00:20:00Z,27.2096,-90.2887,1342.0,37.3,11133222
BP,ioos:station:wmo:42369:4,2020-07-19T00:40:00Z,27.2096,-90.2887,1342.0,36.4,11133222
BP,ioos:station:wmo:42369:4,2020-07-19T01:00:00Z,27.2096,-90.2887,1342.0,35.5,11133222
BP,ioos:station:wmo:42369:4,2020-07-19T01:20:00Z,27.2096,-90.2887,1342.0,34.7,11111222
BP,ioos:station:wmo:42369:4,2020-07-19T01:40:00Z,27.2096,-90.2887,1342.0,34.0,11111222
BP,ioos:station:wmo:42369:4,2020-07-19T02:00:00Z,27.2096,-90.2887,1342.0,33.5,11111222
BP,ioos:station:wmo:42369:4,2020-07-19T02:20:00Z,27.2096,-90.2887,1342.0,33.0,11111222
BP,ioos:station:wmo:42369:4,2020-07-19T02:40:00Z,27.2096,-90.2887,1342.0,32.6,11111222
BP,ioos:station:wmo:42369:4,2020-07-19T03:00:00Z,27.2096,-90.2887,1342.0,32.3,11111222
BP,ioos:station:wmo:42369:4,2020-07-19T03:20:00Z,27.2096,-90.2887,1342.0,32.0,11111222
BP,ioos:station:wmo:42369:4,2020-07-19T03:40:00Z,27.2096,-90.2887,1342.0,31.8,11111222
BP,ioos:station:wmo:42369:4,2020-07-19T04:00:00Z,27.2096,-90.2887,1342.0,31.5,11111222
BP,ioos:station:wmo:42369:4,2020-07-19T04:20:00Z,27.2096,-90.2887,1342.0,31.3,11111222
BP,ioos:station:wmo:42369:4,2020-07-19T04:40:00Z,27.2096,-90.2887,1342.0,31.1,11111222
BP,ioos:station:wmo:42369:4,2020-07-19T05:00:00Z,27.2096,-90.2887,1342.0,30.9,11111222
BP,ioos:station:wmo:42369:4,2020-07-19T05:20:00Z,27.2096,-90.2887,1342.0,30.8,11111222
BP,ioos:station:wmo:42369:4,2020-07-19T05:40:00Z,27.2096,-90.2887,1342.0,30.7,11111222
BP,ioos:station:wmo:42369:4,2020-07-19T06:00:00Z,27.2096,-90.2887,1342.0,30.6,11111222
BP,ioos:station:wmo:42369:4,2020-07-19T06:20:00Z,27.2096,-90.2887,1342.0,30.5,11111222
BP,ioos:station:wmo:42369:4,2020-07-19T06:40:00Z,27.2096,-90.2887,1342.0,30.4,11111222
BP,ioos:station:wmo:42369:4,2020-07-19T07:00:00Z,27.2096,-90.2887,1342.0,30.3,11111222
BP,ioos:station:wmo:42369:4,2020-07-19T07:20:00Z,27.2096,-90.2887,1342.0,30.2,11111222
BP,ioos:station:wmo:42369:4,2020-07-19T07:40:00Z,27.2096,-90.2887,1342.0,30.1,11111222
BP,ioos:station:wmo:42369:4,2020-07-19T08:00:00Z,27.2096,-90.2887,1342.0,30.0,11111222
BP,ioos:station:wmo:42369:4,2020-07-19T08:20:00Z,27.2096,-90.2887,1342.0,29.9,11111222
BP,ioos:station:wmo:42369:4,2020-07-19T08:40:00Z,27.2096,-90.2887,1342.0,29.9,11111222
BP,ioos:station:wmo:42369:4,2020-07-19T09:00:00Z,27.2096,-90.2887,1342.0,29.8,11111222
BP,ioos:station:wmo:42369:4,2020-07-19T09:20:00Z,27.2096,-90.2887,1342.0,29.7,11111222
BP,ioos:station:wmo:42369:4,2020-07-19T09:40:00Z,27.2096,-90.2887,1342.0,29.6,11111222
BP,ioos:station:wmo:42369:4,2020-07-19T10:00:00Z,27.2096,-90.2887,1342.0,29.6,11111222
BP,ioos:station:wmo:42369:4,2020-07-19T10:20:00Z,27.2096,-90.2887,1342.0,29.5,11111222
BP,ioos:station:wmo:42369:4,2020-07-19T10:40:00Z,27.2096,-90.2887,1342.0,29.5,11111222
BP,ioos:station:wmo:42369:4,2020-07-19T11:00:00Z,27.2096,-90.2887,1342.0,29.4,11111222
BP,ioos:station:wmo:42369:4,2020-07-19T11:20:00Z,27.2096,-90.2887,1342.0,29.4,11111222
BP,ioos:station:wmo:42369:4,2020-07-19T11:40:00Z,27.2096,-90.2887,1342.0,29.4,11111222
BP,ioos:station:wmo:42369:4,2020-07-19T12:00:00Z,27.2096,-90.2887,1342.0,29.4,11111222
BP,ioos:station:wmo:42369:4,2020-07-19T12:20:00Z,27.2096,-90.2887,1342.0,29.4,11111222
BP,ioos:station:wmo:42369:4,2020-07-19T12:40:00Z,27.2096,-90.2887,1342.0,29.5,11111222
BP,ioos:station:wmo:42369:4,2020-07-19T13:00:00Z,27.2096,-90.2887,1342.0,29.7,11111222
BP,ioos:station:wmo:42369:4,2020-07-19T13:20:00Z,27.2096,-90.2887,1342.0,29.8,11111222
BP,ioos:station:wmo:42369:4,2020-07-19T14:20:00Z,27.2096,-90.2887,1342.0,30.4,11111222
BP,ioos:station:wmo:42369:4,2020-07-19T14:40:00Z,27.2096,-90.2887,1342.0,30.6,11111222
BP,ioos:station:wmo:42369:4,2020-07-19T15:00:00Z,27.2096,-90.2887,1342.0,31.0,11111222
BP,ioos:station:wmo:42369:4,2020-07-19T15:20:00Z,27.2096,-90.2887,1342.0,31.4,11111222
BP,ioos:station:wmo:42369:4,2020-07-19T15:40:00Z,27.2096,-90.2887,1342.0,31.9,11111222
BP,ioos:station:wmo:42369:4,2020-07-19T16:40:00Z,27.2096,-90.2887,1342.0,31.1,11111222
BP,ioos:station:wmo:42369:4,2020-07-19T17:00:00Z,27.2096,-90.2887,1342.0,30.9,11111222
BP,ioos:station:wmo:42369:4,2020-07-19T17:20:00Z,27.2096,-90.2887,1342.0,30.6,11111222
BP,ioos:station:wmo:42369:4,2020-07-19T17:40:00Z,27.2096,-90.2887,1342.0,29.8,11111222
BP,ioos:station:wmo:42369:4,2020-07-19T18:00:00Z,27.2096,-90.2887,1342.0,29.3,11111222
BP,ioos:station:wmo:42369:4,2020-07-19T18:20:00Z,27.2096,-90.2887,1342.0,29.0,11111222
BP,ioos:station:wmo:42369:4,2020-07-19T18:40:00Z,27.2096,-90.2887,1342.0,28.9,11111222
BP,ioos:station:wmo:42369:4,2020-07-19T19:00:00Z,27.2096,-90.2887,1342.0,28.8,11111222
BP,ioos:station:wmo:42369:4,2020-07-19T19:20:00Z,27.2096,-90.2887,1342.0,28.6,11111222
BP,ioos:station:wmo:42369:4,2020-07-19T19:40:00Z,27.2096,-90.2887,1342.0,28.4,11111222
BP,ioos:station:wmo:42369:4,2020-07-19T20:00:00Z,27.2096,-90.2887,1342.0,28.2,11111222
BP,ioos:station:wmo:42369:4,2020-07-19T20:20:00Z,27.2096,-90.2887,1342.0,28.0,11111222
BP,ioos:station:wmo:42369:4,2020-07-19T20:40:00Z,27.2096,-90.2887,1342.0,28.0,11111222
BP,ioos:station:wmo:42369:4,2020-07-19T21:00:00Z,27.2096,-90.2887,1342.0,28.1,11111222
BP,ioos:station:wmo:42369:4,2020-07-19T21:20:00Z,27.2096,-90.2887,1342.0,28.3,11111222
BP,ioos:station:wmo:42369:4,2020-07-19T21:40:00Z,27.2096,-90.2887,1342.0,28.5,11111222
BP,ioos:station:wmo:42369:4,2020-07-19T22:00:00Z,27.2096,-90.2887,1342.0,29.0,11111222
BP,ioos:station:wmo:42369:4,2020-07-19T22:20:00Z,27.2096,-90.2887,1342.0,29.5,11111222
BP,ioos:station:wmo:42369:4,2020-07-19T22:40:00Z,27.2096,-90.2887,1342.0,29.7,11111222
BP,ioos:station:wmo:42369:4,2020-07-19T23:00:00Z,27.2096,-90.2887,1342.0,29.8,11111222
BP,ioos:station:wmo:42369:4,2020-07-19T23:20:00Z,27.2096,-90.2887,1342.0,29.8,11111222
BP,ioos:station:wmo:42369:4,2020-07-19T23:40:00Z,27.2096,-90.2887,1342.0,29.7,11111222
BP,ioos:station:wmo:42369:4,2020-07-20T00:00:00Z,27.2096,-90.2887,1342.0,29.6,11111222
BP,ioos:station:wmo:42369:4,2020-07-20T00:20:00Z,27.2096,-90.2887,1342.0,29.4,11111222
BP,ioos:station:wmo:42369:4,2020-07-20T00:40:00Z,27.2096,-90.2887,1342.0,29.2,11111222
BP,ioos:station:wmo:42369:4,2020-07-20T01:00:00Z,27.2096,-90.2887,1342.0,29.0,11111222
BP,ioos:station:wmo:42369:4,2020-07-20T01:20:00Z,27.2096,-90.2887,1342.0,28.8,11111222
BP,ioos:station:wmo:42369:4,2020-07-20T01:40:00Z,27.2096,-90.2887,1342.0,28.6,11111222
BP,ioos:station:wmo:42369:4,2020-07-20T02:00:00Z,27.2096,-90.2887,1342.0,28.5,11111222
BP,ioos:station:wmo:42369:4,2020-07-20T02:20:00Z,27.2096,-90.2887,1342.0,28.4,11111222
BP,ioos:station:wmo:42369:4,2020-07-20T02:40:00Z,27.2096,-90.2887,1342.0,28.3,11111222
BP,ioos:station:wmo:42369:4,2020-07-20T03:00:00Z,27.2096,-90.2887,1342.0,28.1,11111222
BP,ioos:station:wmo:42369:4,2020-07-20T03:40:00Z,27.2096,-90.2887,1342.0,27.9,11111222
BP,ioos:station:wmo:42369:4,2020-07-20T04:20:00Z,27.2096,-90.2887,1342.0,27.9,11111222
BP,ioos:station:wmo:42369:4,2020-07-20T08:40:00Z,27.2096,-90.2887,1342.0,27.6,11111222
BP,ioos:station:wmo:42369:4,2020-07-20T09:00:00Z,27.2096,-90.2887,1342.0,27.7,11111222
BP,ioos:station:wmo:42369:4,2020-07-20T09:20:00Z,27.2096,-90.2887,1342.0,27.7,11111222
BP,ioos:station:wmo:42369:4,2020-07-20T17:40:00Z,27.2096,-90.2887,1342.0,28.4,11111222
BP,ioos:station:wmo:42369:4,2020-07-20T18:20:00Z,27.2096,-90.2887,1342.0,28.0,11111222
BP,ioos:station:wmo:42369:4,2020-07-20T20:00:00Z,27.2096,-90.2887,1342.0,27.7,11111222
BP,ioos:station:wmo:42369:4,2020-07-20T20:20:00Z,27.2096,-90.2887,1342.0,27.6,11111222
BP,ioos:station:wmo:42369:4,2020-07-20T20:40:00Z,27.2096,-90.2887,1342.0,27.4,11111222
BP,ioos:station:wmo:42369:4,2020-07-20T21:00:00Z,27.2096,-90.2887,1342.0,27.3,11111222
BP,ioos:station:wmo:42369:4,2020-07-20T21:20:00Z,27.2096,-90.2887,1342.0,27.3,11111222
BP,ioos:station:wmo:42369:4,2020-07-20T21:40:00Z,27.2096,-90.2887,1342.0,27.5,11111222
BP,ioos:station:wmo:42369:4,2020-07-20T22:00:00Z,27.2096,-90.2887,1342.0,27.6,11111222
BP,ioos:station:wmo:42369:4,2020-07-20T22:20:00Z,27.2096,-90.2887,1342.0,27.9,11111222
BP,ioos:station:wmo:42369:4,2020-07-20T22:40:00Z,27.2096,-90.2887,1342.0,28.1,11111222
BP,ioos:station:wmo:42369:4,2020-07-20T23:00:00Z,27.2096,-90.2887,1342.0,28.3,11111222
BP,ioos:station:wmo:42369:4,2020-07-20T23:20:00Z,27.2096,-90.2887,1342.0,28.4,11111222
BP,ioos:station:wmo:42369:4,2020-07-20T23:40:00Z,27.2096,-90.2887,1342.0,28.5,11111222
BP,ioos:station:wmo:42369:4,2020-07-21T00:00:00Z,27.2096,-90.2887,1342.0,28.5,11111222
BP,ioos:station:wmo:42369:4,2020-07-21T00:20:00Z,27.2096,-90.2887,1342.0,28.4,11111222
BP,ioos:station:wmo:42369:4,2020-07-21T00:40:00Z,27.2096,-90.2887,1342.0,28.3,11111222
BP,ioos:station:wmo:42369:4,2020-07-21T01:00:00Z,27.2096,-90.2887,1342.0,28.2,11111222
BP,ioos:station:wmo:42369:4,2020-07-21T01:20:00Z,27.2096,-90.2887,1342.0,28.1,11111222
BP,ioos:station:wmo:42369:4,2020-07-21T01:40:00Z,27.2096,-90.2887,1342.0,28.0,11111222
BP,ioos:station:wmo:42369:4,2020-07-21T02:00:00Z,27.2096,-90.2887,1342.0,27.9,11111222
BP,ioos:station:wmo:42369:4,2020-07-21T02:20:00Z,27.2096,-90.2887,1342.0,27.9,11111222
BP,ioos:station:wmo:42369:4,2020-07-21T02:40:00Z,27.2096,-90.2887,1342.0,27.8,11111222
BP,ioos:station:wmo:42369:4,2020-07-21T03:00:00Z,27.2096,-90.2887,1342.0,27.7,11111222
BP,ioos:station:wmo:42369:4,2020-07-21T03:20:00Z,27.2096,-90.2887,1342.0,27.7,11111222
BP,ioos:station:wmo:42369:4,2020-07-21T03:40:00Z,27.2096,-90.2887,1342.0,27.6,11111222
BP,ioos:station:wmo:42369:4,2020-07-21T04:00:00Z,27.2096,-90.2887,1342.0,27.5,11111222
BP,ioos:station:wmo:42369:4,2020-07-21T04:20:00Z,27.2096,-90.2887,1342.0,27.5,11111222
BP,ioos:station:wmo:42369:4,2020-07-21T04:40:00Z,27.2096,-90.2887,1342.0,27.4,11111222
BP,ioos:station:wmo:42369:4,2020-07-21T05:00:00Z,27.2096,-90.2887,1342.0,27.4,11111222
BP,ioos:station:wmo:42369:4,2020-07-21T05:20:00Z,27.2096,-90.2887,1342.0,27.4,11111222
BP,ioos:station:wmo:42369:4,2020-07-21T05:40:00Z,27.2096,-90.2887,1342.0,27.4,11111222
BP,ioos:station:wmo:42369:4,2020-07-21T06:00:00Z,27.2096,-90.2887,1342.0,27.4,11111222
BP,ioos:station:wmo:42369:4,2020-07-21T06:20:00Z,27.2096,-90.2887,1342.0,27.4,11111222
BP,ioos:station:wmo:42369:4,2020-07-21T06:40:00Z,27.2096,-90.2887,1342.0,27.4,11111222
BP,ioos:station:wmo:42369:4,2020-07-21T07:00:00Z,27.2096,-90.2887,1342.0,27.3,11111222
BP,ioos:station:wmo:42369:4,2020-07-21T07:20:00Z,27.2096,-90.2887,1342.0,27.3,11111222
BP,ioos:station:wmo:42369:4,2020-07-21T07:40:00Z,27.2096,-90.2887,1342.0,27.3,11111222
BP,ioos:station:wmo:42369:4,2020-07-21T08:00:00Z,27.2096,-90.2887,1342.0,27.2,11111222
BP,ioos:station:wmo:42369:4,2020-07-21T08:20:00Z,27.2096,-90.2887,1342.0,27.1,11111222
BP,ioos:station:wmo:42369:4,2020-07-21T08:40:00Z,27.2096,-90.2887,1342.0,27.1,11111222
BP,ioos:station:wmo:42369:4,2020-07-21T09:00:00Z,27.2096,-90.2887,1342.0,27.0,11111222
BP,ioos:station:wmo:42369:4,2020-07-21T09:20:00Z,27.2096,-90.2887,1342.0,26.9,11111222
BP,ioos:station:wmo:42369:4,2020-07-21T09:40:00Z,27.2096,-90.2887,1342.0,26.8,11111222
BP,ioos:station:wmo:42369:4,2020-07-21T10:00:00Z,27.2096,-90.2887,1342.0,26.6,11111222
BP,ioos:station:wmo:42369:4,2020-07-21T10:20:00Z,27.2096,-90.2887,1342.0,26.4,11111222
BP,ioos:station:wmo:42369:4,2020-07-21T10:40:00Z,27.2096,-90.2887,1342.0,26.3,11111222
BP,ioos:station:wmo:42369:4,2020-07-21T11:00:00Z,27.2096,-90.2887,1342.0,26.2,11111222
BP,ioos:station:wmo:42369:4,2020-07-31T13:20:00Z,27.1989,-90.2834,1342.0,4.3,11113222
BP,ioos:station:wmo:42369:4,2020-07-31T13:40:00Z,27.1989,-90.2833,1342.0,4.3,11113222
BP,ioos:station:wmo:42369:4,2020-07-31T14:00:00Z,27.1989,-90.2832,1342.0,4.3,11113222
BP,ioos:station:wmo:42369:4,2020-07-31T14:20:00Z,27.1989,-90.2831,1342.0,4.3,11113222
BP,ioos:station:wmo:42369:4,2020-07-31T14:40:00Z,27.1989,-90.2830,1342.0,4.3,11113222
BP,ioos:station:wmo:42369:4,2020-07-31T15:00:00Z,27.1989,-90.2829,1342.0,4.3,11113222
BP,ioos:station:wmo:42369:4,2020-07-31T15:20:00Z,27.1989,-90.2828,1342.0,4.3,11113222
BP,ioos:station:wmo:42369:4,2020-07-31T15:40:00Z,27.1988,-90.2827,1342.0,4.3,11113222
BP,ioos:station:wmo:42369:4,2020-07-31T16:00:00Z,27.1988,-90.2826,1342.0,4.3,11113222
BP,ioos:station:wmo:42369:4,2020-07-31T16:20:00Z,27.1988,-90.2825,1342.0,4.3,11113222
BP,ioos:station:wmo:42369:4,2020-07-31T16:40:00Z,27.1988,-90.2824,1342.0,4.3,11113222
BP,ioos:station:wmo:42369:4,2020-07-31T17:00:00Z,27.1988,-90.2822,1342.0,4.3,11113222
BP,ioos:station:wmo:42369:4,2020-07-31T17:20:00Z,27.1988,-90.2821,1342.0,4.3,11113222
BP,ioos:station:wmo:42369:4,2020-07-31T17:40:00Z,27.1988,-90.2820,1342.0,4.3,11113222
BP,ioos:station:wmo:42369:4,2020-07-31T18:00:00Z,27.1988,-90.2819,1342.0,4.3,11113222
BP,ioos:station:wmo:42369:4,2020-07-31T18:20:00Z,27.1988,-90.2817,1342.0,4.3,11113222
BP,ioos:station:wmo:42369:4,2020-07-31T18:40:00Z,27.1988,-90.2815,1342.0,4.3,11113222
BP,ioos:station:wmo:42369:4,2020-07-31T19:00:00Z,27.1988,-90.2814,1342.0,4.3,11113222
BP,ioos:station:wmo:42369:4,2020-07-31T19:20:00Z,27.1988,-90.2813,1342.0,4.3,11113222
BP,ioos:station:wmo:42369:4,2020-07-31T19:40:00Z,27.1988,-90.2812,1342.0,4.3,11113222
BP,ioos:station:wmo:42369:4,2020-07-31T20:00:00Z,27.1988,-90.2812,1342.0,4.3,11113222
BP,ioos:station:wmo:42369:4,2020-07-31T20:20:00Z,27.1987,-90.2812,1342.0,4.3,11113222
BP,ioos:station:wmo:42369:4,2020-07-31T20:40:00Z,27.1987,-90.2812,1342.0,4.3,11113222
BP,ioos:station:wmo:42369:4,2020-07-31T21:00:00Z,27.1987,-90.2813,1342.0,4.3,11113222
BP,ioos:station:wmo:42369:4,2020-07-31T21:20:00Z,27.1987,-90.2813,1342.0,4.3,11113222
BP,ioos:station:wmo:42369:4,2020-07-31T21:40:00Z,27.1986,-90.2814,1342.0,4.3,11113222
BP,ioos:station:wmo:42369:4,2020-07-31T22:00:00Z,27.1986,-90.2815,1342.0,4.3,11113222
BP,ioos:station:wmo:42369:4,2020-07-31T22:20:00Z,27.1986,-90.2814,1342.0,4.3,11113222
BP,ioos:station:wmo:42369:4,2020-07-31T22:40:00Z,27.1986,-90.2813,1342.0,4.3,11113222
BP,ioos:station:wmo:42369:4,2020-07-31T23:00:00Z,27.1986,-90.2814,1342.0,4.3,11113222
BP,ioos:station:wmo:42369:4,2020-07-31T23:20:00Z,27.1986,-90.2815,1342.0,4.3,11113222
BP,ioos:station:wmo:42369:4,2020-07-31T23:40:00Z,27.1987,-90.2816,1342.0,4.3,11113222
